Flag for Canada Past Weather in Happy Valley-Goose Bay, Newfoundland and Labrador, Canada — Yesterday and Last 2 Weeks

Now
54 °F

Mostly cloudy.


Feels Like: 49 °F
Forecast: 50 / 54 °F
Wind: 15 mph from Northeast

Location: Goose

Current Time: Jul 27, 2016 at 2:54:58 AM

Latest Report: Jul 27, 2016 at 2:00 AM


Visibility: 15 mi

Pressure: 29.94 "Hg

Humidity: 82%

Dew Point: 48 °F

Location of Happy Valley-Goose BayLocation

Past Weather in Happy Valley-Goose Bay — Graph

°F

Happy Valley-Goose Bay Temperature Yesterday

Maximum temperature yesterday: 59 °F (at 2:00 PM)
Minimum temperature yesterday: 50 °F (at 3:00 AM)
Average temperature yesterday: 54 °F

High & Low Weather Summary for the Past Weeks

 TemperatureHumidityPressure
High86 °F (Jul 17, 5:00 PM)94% (Jul 12, 5:00 AM)30.06 "Hg (Jul 12, 5:00 AM)
Low50 °F (Jul 13, 3:00 AM)24% (Jul 18, 4:00 PM)29.24 "Hg (Jul 15, 1:00 PM)
Average62 °F68%29.73 "Hg
* Reported Jul 12 1:00 AM — Jul 27 1:00 AM, Happy Valley-Goose Bay, Weather by CustomWeather, © 2016

Note: Actual official high and low records may vary slightly from our data, if they occured in-between our weather recording intervals... More about our weather records

Advertising

Happy Valley-Goose Bay Weather History for the Previous 24 Hours

Scroll right to see more
 ConditionsComfort  
Time TempWeatherWind HumidityBarometerVisibility
1:00 AM
Wed, Jul 27
55 °FOvercast.17 mph77%29.95 "Hg15 mi
12:00 AM55 °FMostly cloudy.15 mph77%29.95 "Hg15 mi
11:47 PM
Tue, Jul 26
55 °FMostly cloudy.15 mph77%29.95 "Hg15 mi
11:00 PM55 °FMostly cloudy.12 mph77%29.96 "Hg15 mi
10:00 PM55 °FMostly cloudy.12 mph77%29.96 "Hg15 mi
9:00 PM55 °FCloudy.12 mph77%29.96 "Hg15 mi
8:00 PM57 °FCloudy.9 mph72%29.96 "Hg15 mi
7:00 PM57 °FCloudy.12 mph72%29.95 "Hg15 mi
6:00 PM57 °FBroken clouds.12 mph67%29.95 "Hg15 mi
5:00 PM59 °FBroken clouds.13 mph63%29.95 "Hg15 mi
4:00 PM59 °FPartly sunny.10 mph63%29.95 "Hg15 mi
3:00 PM59 °FBroken clouds.10 mph63%29.96 "Hg15 mi
2:00 PM59 °FPartly sunny.10 mph63%29.96 "Hg15 mi
1:00 PM57 °FPartly sunny.5 mph67%29.96 "Hg15 mi
12:00 PM55 °FBroken clouds.12 mph72%29.97 "Hg15 mi
11:00 AM54 °FBroken clouds.5 mph77%29.97 "Hg15 mi
10:00 AM52 °FBroken clouds.No wind77%29.97 "Hg15 mi
9:45 AM52 °FBroken clouds.2 mph77%29.98 "Hg15 mi
9:00 AM52 °FMostly cloudy.3 mph77%29.98 "Hg15 mi
8:00 AM54 °FMostly cloudy.7 mph72%29.98 "Hg15 mi
7:00 AM50 °FBroken clouds.8 mph82%29.98 "Hg15 mi
6:49 AM50 °FBroken clouds.7 mph82%29.98 "Hg15 mi
6:00 AM50 °FScattered showers. Mostly cloudy.9 mph76%29.97 "Hg15 mi
5:00 AM50 °FMostly cloudy.7 mph76%29.97 "Hg15 mi
4:00 AM50 °FOvercast.6 mph76%29.96 "Hg15 mi
3:00 AM50 °FOvercast.6 mph76%29.96 "Hg15 mi
2:00 AM52 °FOvercast.6 mph72%29.96 "Hg15 mi
Weather by CustomWeather, © 2016

See weather overviewHow to use our weather pages